TimeCDT,TemperatureF,Dew PointF,Humidity,Sea Level PressureIn,VisibilityMPH,Wind Direction,Wind SpeedMPH,Gust SpeedMPH,PrecipitationIn,Events,Conditions,WindDirDegrees,DateUTC
12:15 AM,26.4,18.3,71,30.33,10.0,Calm,Calm,-,N/A,,Clear,0,2013-04-04 05:15:00
12:35 AM,25.0,18.5,76,30.33,10.0,Calm,Calm,-,N/A,,Clear,0,2013-04-04 05:35:00
12:55 AM,24.3,19.4,82,30.33,10.0,Calm,Calm,-,N/A,,Clear,0,2013-04-04 05:55:00
1:15 AM,23.5,18.9,82,30.32,10.0,Calm,Calm,-,N/A,,Clear,0,2013-04-04 06:15:00
1:35 AM,23.7,18.7,81,30.32,10.0,Calm,Calm,-,N/A,,Clear,0,2013-04-04 06:35:00
1:55 AM,23.4,18.9,83,30.31,10.0,Calm,Calm,-,N/A,,Clear,0,2013-04-04 06:55:00
2:15 AM,22.8,18.9,85,30.30,10.0,Calm,Calm,-,N/A,,Clear,0,2013-04-04 07:15:00
2:35 AM,21.9,18.3,86,30.29,10.0,Calm,Calm,-,N/A,,Clear,0,2013-04-04 07:35:00
2:55 AM,21.4,17.8,86,30.28,10.0,Calm,Calm,-,N/A,,Clear,0,2013-04-04 07:55:00
3:15 AM,21.9,18.1,85,30.27,10.0,East,3.5,-,N/A,,Clear,80,2013-04-04 08:15:00
3:35 AM,21.9,17.8,84,30.27,10.0,Calm,Calm,-,N/A,,Clear,0,2013-04-04 08:35:00
3:55 AM,20.8,17.8,88,30.26,10.0,Calm,Calm,-,N/A,,Clear,0,2013-04-04 08:55:00
4:15 AM,20.7,18.0,89,30.26,10.0,Calm,Calm,-,N/A,,Clear,0,2013-04-04 09:15:00
4:35 AM,21.6,18.3,87,30.25,10.0,Calm,Calm,-,N/A,,Clear,0,2013-04-04 09:35:00
4:55 AM,22.1,18.0,84,30.24,10.0,Calm,Calm,-,N/A,,Clear,0,2013-04-04 09:55:00
5:15 AM,21.7,17.8,85,30.24,10.0,Calm,Calm,-,N/A,,Clear,0,2013-04-04 10:15:00
5:35 AM,20.3,17.2,88,30.23,10.0,ESE,3.5,-,N/A,,Clear,120,2013-04-04 10:35:00
5:55 AM,20.7,17.8,89,30.22,10.0,ESE,3.5,-,N/A,,Clear,110,2013-04-04 10:55:00
6:35 AM,24.3,17.8,76,30.23,10.0,SSE,3.5,-,N/A,,Clear,150,2013-04-04 11:35:00
6:55 AM,26.4,17.4,69,30.22,10.0,SSE,4.6,-,N/A,,Clear,150,2013-04-04 11:55:00
7:15 AM,27.5,17.6,66,30.22,10.0,SE,4.6,-,N/A,,Clear,140,2013-04-04 12:15:00
7:35 AM,28.9,19.8,69,30.22,10.0,SSE,5.8,-,N/A,,Clear,150,2013-04-04 12:35:00
7:55 AM,31.5,21.4,66,30.22,10.0,SSE,5.8,-,N/A,,Clear,160,2013-04-04 12:55:00
8:15 AM,33.3,20.5,59,30.22,10.0,South,8.1,-,N/A,,Clear,170,2013-04-04 13:15:00
8:35 AM,35.6,19.0,51,30.21,10.0,South,8.1,-,N/A,,Clear,170,2013-04-04 13:35:00
8:55 AM,38.3,17.2,43,30.21,10.0,SSW,10.4,-,N/A,,Clear,200,2013-04-04 13:55:00
9:15 AM,39.7,16.2,38,30.20,10.0,South,10.4,-,N/A,,Clear,180,2013-04-04 14:15:00
9:35 AM,41.4,16.2,36,30.20,10.0,South,10.4,-,N/A,,Clear,190,2013-04-04 14:35:00
9:55 AM,42.8,16.5,35,30.19,10.0,SSW,8.1,-,N/A,,Clear,200,2013-04-04 14:55:00
10:15 AM,44.1,16.3,33,30.19,10.0,South,10.4,-,N/A,,Clear,190,2013-04-04 15:15:00
10:35 AM,45.3,16.2,31,30.18,10.0,SSW,5.8,-,N/A,,Clear,200,2013-04-04 15:35:00
10:55 AM,46.0,16.2,30,30.17,10.0,SW,5.8,-,N/A,,Clear,230,2013-04-04 15:55:00
11:15 AM,46.9,16.3,29,30.16,10.0,WSW,4.6,-,N/A,,Clear,250,2013-04-04 16:15:00
11:35 AM,47.5,15.8,28,30.15,10.0,WNW,4.6,-,N/A,,Clear,290,2013-04-04 16:35:00
11:55 AM,48.0,15.6,27,30.14,10.0,SSW,4.6,-,N/A,,Clear,210,2013-04-04 16:55:00
12:15 PM,49.3,16.9,28,30.13,10.0,WNW,9.2,-,N/A,,Clear,290,2013-04-04 17:15:00
12:35 PM,49.8,16.5,27,30.11,10.0,WSW,4.6,-,N/A,,Clear,240,2013-04-04 17:35:00
12:55 PM,50.5,16.0,25,30.10,10.0,NW,6.9,-,N/A,,Clear,320,2013-04-04 17:55:00
1:15 PM,51.3,15.3,24,30.09,10.0,WSW,8.1,-,N/A,,Clear,240,2013-04-04 18:15:00
1:35 PM,51.6,14.5,23,30.08,10.0,Calm,Calm,-,N/A,,Clear,0,2013-04-04 18:35:00
1:55 PM,52.9,15.6,23,30.08,10.0,West,9.2,-,N/A,,Clear,270,2013-04-04 18:55:00
2:15 PM,53.4,15.6,22,30.06,10.0,South,4.6,-,N/A,,Clear,170,2013-04-04 19:15:00
2:35 PM,54.0,15.3,22,30.05,10.0,Calm,Calm,-,N/A,,Clear,0,2013-04-04 19:35:00
3:15 PM,54.7,16.2,22,30.03,10.0,WNW,3.5,-,N/A,,Clear,290,2013-04-04 20:15:00
3:35 PM,55.4,15.8,21,30.02,10.0,West,3.5,-,N/A,,Clear,270,2013-04-04 20:35:00
3:55 PM,55.8,15.8,21,30.01,10.0,WSW,8.1,-,N/A,,Clear,250,2013-04-04 20:55:00
4:15 PM,56.1,15.1,20,30.00,10.0,Calm,Calm,-,N/A,,Clear,0,2013-04-04 21:15:00
4:35 PM,56.3,15.4,20,30.00,10.0,West,6.9,-,N/A,,Clear,270,2013-04-04 21:35:00
4:55 PM,56.7,16.2,20,30.00,10.0,WSW,8.1,-,N/A,,Clear,250,2013-04-04 21:55:00
5:15 PM,56.8,16.7,21,29.99,10.0,WSW,6.9,-,N/A,,Clear,240,2013-04-04 22:15:00
5:35 PM,57.0,16.5,20,29.99,10.0,West,10.4,-,N/A,,Clear,260,2013-04-04 22:35:00
5:55 PM,56.7,15.8,20,29.99,10.0,West,9.2,-,N/A,,Clear,280,2013-04-04 22:55:00
6:15 PM,56.3,16.0,21,29.99,10.0,West,11.5,-,N/A,,Clear,260,2013-04-04 23:15:00
6:35 PM,55.6,15.8,21,29.98,10.0,West,9.2,-,N/A,,Clear,260,2013-04-04 23:35:00
6:55 PM,54.1,16.5,23,29.98,10.0,West,8.1,-,N/A,,Clear,260,2013-04-04 23:55:00
7:15 PM,52.2,17.2,25,29.98,10.0,WSW,5.8,-,N/A,,Clear,250,2013-04-05 00:15:00
7:35 PM,49.3,17.6,28,29.98,10.0,West,5.8,-,N/A,,Clear,260,2013-04-05 00:35:00
7:55 PM,49.1,16.9,28,29.98,10.0,WSW,4.6,-,N/A,,Clear,250,2013-04-05 00:55:00
8:15 PM,48.2,16.5,28,29.98,10.0,WSW,3.5,-,N/A,,Clear,240,2013-04-05 01:15:00
8:35 PM,46.2,17.1,31,29.98,10.0,SW,3.5,-,N/A,,Clear,220,2013-04-05 01:35:00
8:55 PM,42.3,19.4,40,29.98,10.0,SW,3.5,-,N/A,,Clear,230,2013-04-05 01:55:00
9:15 PM,39.2,20.8,48,29.99,10.0,SW,3.5,-,N/A,,Scattered Clouds,230,2013-04-05 02:15:00
9:35 PM,38.5,21.6,51,29.98,10.0,SW,4.6,-,N/A,,Scattered Clouds,230,2013-04-05 02:35:00
9:55 PM,36.7,22.8,57,29.98,10.0,SW,4.6,-,N/A,,Scattered Clouds,230,2013-04-05 02:55:00
10:15 PM,36.9,22.3,56,29.98,10.0,WSW,4.6,-,N/A,,Mostly Cloudy,240,2013-04-05 03:15:00
10:35 PM,37.0,22.8,56,29.98,10.0,WSW,5.8,-,N/A,,Scattered Clouds,240,2013-04-05 03:35:00
10:55 PM,37.2,22.8,56,29.97,10.0,WSW,6.9,-,N/A,,Scattered Clouds,240,2013-04-05 03:55:00
11:15 PM,40.3,23.4,51,29.97,10.0,WSW,5.8,-,N/A,,Overcast,240,2013-04-05 04:15:00
11:35 PM,41.5,24.6,51,29.97,10.0,SW,5.8,-,N/A,,Overcast,230,2013-04-05 04:35:00
11:55 PM,41.2,26.4,56,29.97,10.0,SW,6.9,-,N/A,,Overcast,230,2013-04-05 04:55:00